Location: Huppendorf
(49.9333°N, 11.1500°E)
Time: 21:37:15
(UTC+00:00)

SJ-6B - Pass Details

Date: 27 February 2020
Orbit: 511 x 580 km, 97.6° (Epoch: 29 March)

Event Time Altitude Azimuth Distance (km) Brightness Sun altitude
Exits shadow 19:29:25 32° 230° (SW) 903 4.1 -25.6°
Maximum altitude 19:30:19 38° 262° (W) 815 4.1 -25.7°
Drops below altitude 10° 19:33:54 10° 332° (NNW) 1,779 6.0 -26.3°
Sets 19:36:09 0° 340° (NNW) 2,685 6.9 -26.6°
